Hereford, TX

3:08 PM CDT on July 24, 2017 (GMT -0500)
Hereford Municipal

Weather History for KHRX - September, 2013

Change the Weather History Date:

Thursday, September 19, 2013

  Actual Average (KCVN) Record (KCVN)
Temperature  
Mean Temperature 72 °F -  
Max Temperature 84 °F 79 °F 96 °F (1930)
Min Temperature 60 °F 53 °F 36 °F (1971)
Cooling Degree Days 6    
Growing Degree Days 22 (Base 50)    
Moisture  
Dew Point 61 °F    
Average Humidity 74    
Maximum Humidity 92    
Minimum Humidity 47    
Precipitation  
Precipitation 0.24 in - - ()
Sea Level Pressure  
Sea Level Pressure 30.01 in    
Wind  
Wind Speed 11 mph (SSW)    
Max Wind Speed 24 mph    
Max Gust Speed 30 mph    
Visibility 10 miles    
Events Rain , Thunderstorm    
Averages and records for this station are not official NWS values.
T = Trace of Precipitation, MM = Missing Value Source: NWS Daily Summary

Daily Weather History Graph

Daily Weather History Graph

Search for Another Location

Airport or City:

Trip Planner

Search our weather history database for the weather conditions in past years. The results will help you decide how hot, cold, wet, or windy it might be!

Date:

Astronomy

Sep. 19, 2013 Rise Set
Actual Time 7:35 AM CDT 7:49 PM CDT
Civil Twilight 7:10 AM CDT 8:15 PM CDT
Nautical Twilight 6:40 AM CDT 8:44 PM CDT
Astronomical Twilight 6:10 AM CDT 9:14 PM CDT
Moon 7:52 PM CDT (9/19) 7:44 AM CDT (9/19)
Length of Visible Light 13h 05m
Length of Day
12h 14m
Full, 100% of the Moon is Illuminated
Sep 19
Full
Sep 26
Last Quarter
Oct 4
New
Oct 11
First Quarter
Oct 18
Full

Hourly Weather History & Observations

Time (CDT) Temp. Heat Index Dew Point Humidity Pressure Visibility Wind Dir Wind Speed Gust Speed Precip Events Conditions
12:15 AM 71.2 °F - 58.3 °F 64% 30.00 in 10.0 mi South 15.0 mph 19.6 mph N/A   Clear
12:35 AM 70.3 °F - 58.5 °F 66% 30.00 in 10.0 mi South 11.5 mph - N/A   Clear
12:55 AM 69.6 °F - 58.5 °F 68% 30.00 in 10.0 mi South 11.5 mph 16.1 mph N/A   Clear
1:15 AM 68.7 °F - 58.5 °F 70% 30.00 in 10.0 mi South 9.2 mph - N/A   Clear
1:35 AM 68.0 °F - 58.5 °F 71% 30.00 in 10.0 mi South 6.9 mph - N/A   Clear
1:55 AM 66.9 °F - 58.3 °F 74% 30.00 in 10.0 mi South 6.9 mph - N/A   Clear
2:15 AM 66.4 °F - 58.5 °F 76% 30.00 in 10.0 mi South 6.9 mph - N/A   Clear
2:35 AM 66.4 °F - 58.6 °F 76% 30.00 in 10.0 mi SSW 6.9 mph - N/A   Clear
2:55 AM 66.2 °F - 58.8 °F 77% 30.00 in 10.0 mi SSW 6.9 mph - N/A   Clear
3:15 AM 66.2 °F - 59.0 °F 78% 30.00 in 10.0 mi South 8.1 mph - N/A   Clear
3:35 AM 66.2 °F - 59.2 °F 78% 29.99 in 10.0 mi South 10.4 mph - N/A   Clear
3:55 AM 66.0 °F - 59.2 °F 79% 29.99 in 10.0 mi South 9.2 mph - N/A   Clear
4:15 AM 65.8 °F - 59.5 °F 80% 29.99 in 10.0 mi South 11.5 mph 18.4 mph N/A   Clear
4:35 AM 66.0 °F - 59.9 °F 81% 29.99 in 10.0 mi SSW 11.5 mph - N/A   Clear
4:55 AM 66.2 °F - 60.1 °F 81% 29.99 in 10.0 mi SSW 10.4 mph - N/A   Clear
5:15 AM 65.8 °F - 60.3 °F 82% 29.99 in 10.0 mi SSW 9.2 mph - N/A   Clear
5:35 AM 65.8 °F - 60.6 °F 83% 30.00 in 10.0 mi SSW 10.4 mph - N/A   Clear
5:55 AM 65.7 °F - 60.8 °F 84% 29.99 in 10.0 mi SSW 9.2 mph - N/A   Clear
6:15 AM 65.5 °F - 60.8 °F 85% 29.99 in 10.0 mi SSW 10.4 mph - N/A   Clear
6:35 AM 65.1 °F - 60.8 °F 86% 30.00 in 10.0 mi South 8.1 mph - N/A   Clear
6:55 AM 64.4 °F - 60.4 °F 87% 30.00 in 10.0 mi South 6.9 mph - N/A   Clear
7:15 AM 64.4 °F - 60.4 °F 87% 30.00 in 10.0 mi SSW 8.1 mph - N/A   Clear
7:35 AM 64.8 °F - 60.8 °F 87% 30.01 in 10.0 mi SSW 9.2 mph - N/A   Mostly Cloudy
7:55 AM 65.3 °F - 61.0 °F 86% 30.02 in 10.0 mi SSW 8.1 mph - N/A   Scattered Clouds
8:15 AM 66.2 °F - 61.7 °F 85% 30.02 in 10.0 mi SSW 10.4 mph 16.1 mph N/A   Clear
8:35 AM 67.1 °F - 61.9 °F 83% 30.02 in 10.0 mi SSW 11.5 mph 16.1 mph N/A   Clear
8:55 AM 68.9 °F - 62.2 °F 79% 30.03 in 10.0 mi SW 12.7 mph 17.3 mph N/A   Scattered Clouds
9:15 AM 68.9 °F - 62.4 °F 80% 30.04 in 10.0 mi SSW 11.5 mph 19.6 mph N/A   Mostly Cloudy
9:35 AM 69.6 °F - 62.2 °F 77% 30.05 in 10.0 mi SSW 16.1 mph 25.3 mph N/A   Overcast
9:55 AM 71.1 °F - 62.4 °F 74% 30.05 in 10.0 mi SW 19.6 mph - N/A Thunderstorm Overcast
10:15 AM 71.6 °F - 62.2 °F 72% 30.05 in 10.0 mi SSW 16.1 mph 24.2 mph N/A Thunderstorm Overcast
10:35 AM 73.2 °F - 62.6 °F 69% 30.06 in 10.0 mi SW 17.3 mph 20.7 mph N/A   Overcast
10:55 AM 73.9 °F - 62.6 °F 68% 30.06 in 10.0 mi SW 18.4 mph 21.9 mph N/A   Overcast
11:15 AM 73.6 °F - 64.4 °F 73% 30.06 in 10.0 mi WSW 13.8 mph - N/A Rain Rain
11:35 AM 71.8 °F - 64.6 °F 78% 30.06 in 10.0 mi WSW 11.5 mph - 0.01 in Thunderstorm Overcast
11:55 AM 71.8 °F - 63.5 °F 75% 30.06 in 10.0 mi WSW 13.8 mph 17.3 mph 0.01 in Thunderstorm Overcast
12:15 PM 65.7 °F - 61.7 °F 87% 30.07 in 2.5 mi West 6.9 mph 21.9 mph 0.06 in Rain , Thunderstorm Thunderstorms and Rain
12:35 PM 66.6 °F - 62.1 °F 85% 30.06 in 3.0 mi SE 4.6 mph - 0.15 in Rain , Thunderstorm Light Thunderstorms and Rain
12:55 PM 67.6 °F - 65.3 °F 92% 30.03 in 10.0 mi SSE 8.1 mph - 0.17 in Rain , Thunderstorm Light Thunderstorms and Rain
1:15 PM 74.3 °F - 64.2 °F 71% 30.02 in 10.0 mi South 13.8 mph - N/A   Overcast
1:35 PM 79.2 °F - 63.3 °F 58% 30.01 in 10.0 mi South 13.8 mph 19.6 mph N/A   Mostly Cloudy
1:55 PM 80.6 °F 81.9 °F 63.0 °F 55% 30.01 in 10.0 mi South 13.8 mph 21.9 mph N/A   Scattered Clouds
2:15 PM 81.5 °F 82.8 °F 63.1 °F 54% 30.00 in 10.0 mi South 13.8 mph 18.4 mph N/A   Clear
2:35 PM 81.9 °F 82.8 °F 61.9 °F 51% 29.99 in 10.0 mi SSW 12.7 mph 18.4 mph N/A   Scattered Clouds
2:55 PM 82.6 °F 83.4 °F 62.4 °F 50% 29.99 in 10.0 mi South 12.7 mph 19.6 mph N/A   Mostly Cloudy
3:15 PM 82.4 °F 83.4 °F 62.6 °F 51% 29.98 in 10.0 mi South 11.5 mph 19.6 mph N/A   Scattered Clouds
3:35 PM 81.1 °F 82.3 °F 62.6 °F 53% 29.98 in 10.0 mi South 12.7 mph 19.6 mph N/A   Scattered Clouds
3:55 PM 81.9 °F 82.8 °F 61.9 °F 51% 29.97 in 10.0 mi South 11.5 mph 18.4 mph N/A   Mostly Cloudy
4:15 PM 83.8 °F 84.3 °F 61.5 °F 47% 29.96 in 10.0 mi South 11.5 mph 24.2 mph N/A   Mostly Cloudy
4:35 PM 83.5 °F 83.9 °F 61.3 °F 47% 29.96 in 10.0 mi SSE 12.7 mph 18.4 mph N/A   Scattered Clouds
4:55 PM 81.1 °F 81.9 °F 60.8 °F 50% 29.95 in 10.0 mi SSE 12.7 mph 17.3 mph N/A   Mostly Cloudy
5:15 PM 80.6 °F 81.5 °F 60.8 °F 51% 29.94 in 10.0 mi South 12.7 mph 21.9 mph N/A   Overcast
5:35 PM 75.2 °F - 64.4 °F 69% 29.94 in 10.0 mi SSE 24.2 mph 29.9 mph 0.01 in Rain , Thunderstorm Light Thunderstorms and Rain
5:55 PM 72.5 °F - 65.7 °F 79% 29.95 in 7.0 mi SSE 17.3 mph 24.2 mph 0.05 in Rain Light Rain
6:15 PM 72.3 °F - 65.5 °F 79% 29.96 in 10.0 mi SSE 11.5 mph 18.4 mph N/A   Overcast
6:35 PM 72.5 °F - 65.1 °F 78% 29.95 in 10.0 mi South 16.1 mph 24.2 mph 0.01 in Rain Light Rain
6:55 PM 72.5 °F - 63.9 °F 74% 29.97 in 10.0 mi South 15.0 mph 23.0 mph 0.01 in   Clear
7:15 PM 71.6 °F - 63.5 °F 76% 29.97 in 10.0 mi South 15.0 mph 24.2 mph N/A   Clear
7:35 PM 71.2 °F - 63.3 °F 76% 29.98 in 10.0 mi South 15.0 mph 19.6 mph N/A   Clear
7:55 PM 71.1 °F - 62.8 °F 75% 30.01 in 10.0 mi South 13.8 mph 18.4 mph N/A   Scattered Clouds
8:15 PM 70.9 °F - 62.8 °F 75% 30.04 in 10.0 mi South 4.6 mph 17.3 mph N/A   Overcast
8:35 PM 66.6 °F - 56.7 °F 70% 30.06 in 10.0 mi North 5.8 mph - N/A   Overcast
8:55 PM 63.3 °F - 58.3 °F 84% 30.06 in 10.0 mi NE 19.6 mph 28.8 mph N/A Rain Light Rain
9:15 PM 60.8 °F - 54.5 °F 80% 30.07 in 10.0 mi ENE 16.1 mph 28.8 mph N/A Rain Light Rain
9:35 PM 61.2 °F - 55.4 °F 81% 30.07 in 10.0 mi East 10.4 mph 20.7 mph N/A   Overcast
9:55 PM 61.7 °F - 57.2 °F 85% 30.06 in 10.0 mi SSE 10.4 mph - N/A Thunderstorm Overcast
10:15 PM 63.7 °F - 55.8 °F 75% 30.06 in 10.0 mi SE 6.9 mph - N/A   Mostly Cloudy
10:35 PM 63.7 °F - 57.0 °F 79% 30.07 in 10.0 mi West 5.8 mph - N/A   Mostly Cloudy
10:55 PM 63.7 °F - 57.4 °F 80% 30.07 in 10.0 mi West 8.1 mph - N/A   Mostly Cloudy
11:15 PM 63.9 °F - 57.0 °F 78% 30.07 in 10.0 mi West 12.7 mph - N/A   Mostly Cloudy
11:35 PM 64.6 °F - 56.8 °F 76% 30.04 in 10.0 mi SSW 15.0 mph - N/A   Light Drizzle
11:55 PM 66.0 °F - 58.5 °F 77% 30.03 in 10.0 mi SSW 15.0 mph 19.6 mph N/A   Light Drizzle